| time (UTC) | temp F | wind direction | speed MPH | gust MPH | rain 1hr in | rain 24hr in | rain mn in | humidity % | barometer mb |
| 20260903194537 | 67 | 115 | 1.0 | 2.0 | 0.00 | 0.00 | 0.00 | 75 | 1028.6 |
| 20260903193533 | 67 | 181 | 0.0 | 1.0 | 0.00 | 0.00 | 0.00 | 76 | 1028.7 |
| 20260903192517 | 67 | 165 | 1.0 | 2.0 | 0.00 | 0.00 | 0.00 | 71 | 1028.6 |
| 20260903191532 | 68 | 126 | 0.0 | 1.0 | 0.00 | 0.00 | 0.00 | 73 | 1028.4 |
| 20260903190517 | 68 | 126 | 1.0 | 1.0 | 0.00 | 0.00 | 0.00 | 73 | 1028.4 |
| 20260903185553 | 69 | 125 | 0.0 | 1.0 | 0.00 | 0.00 | 0.00 | 73 | 1028.2 |
| 20260903184516 | 70 | 209 | 1.0 | 2.0 | 0.00 | 0.00 | 0.00 | 70 | 1028.1 |
| 20260903183552 | 70 | 253 | 0.0 | 2.0 | 0.00 | 0.00 | 0.00 | 69 | 1027.9 |
| 20260903182536 | 71 | 149 | 1.0 | 3.0 | 0.00 | 0.00 | 0.00 | 69 | 1027.9 |
| 20260903181532 | 72 | 284 | 1.0 | 2.0 | 0.00 | 0.00 | 0.00 | 65 | 1027.7 |
| 20260903180557 | 72 | 312 | 1.0 | 3.0 | 0.00 | 0.00 | 0.00 | 66 | 1027.8 |
| 20260903175533 | 72 | 252 | 0.0 | 1.0 | 0.00 | 0.00 | 0.00 | 64 | 1027.7 |
| 20260903174517 | 72 | 312 | 2.0 | 3.0 | 0.00 | 0.00 | 0.00 | 64 | 1027.6 |
| 20260903173552 | 73 | 307 | 2.0 | 3.0 | 0.00 | 0.00 | 0.00 | 64 | 1027.5 |
| 20260903172516 | 75 | 312 | 3.0 | 6.0 | 0.00 | 0.00 | 0.00 | 59 | 1027.4 |
| 20260903171532 | 73 | 327 | 4.0 | 6.0 | 0.00 | 0.00 | 0.00 | 62 | 1027.1 |
| 20260903170517 | 74 | 329 | 2.0 | 3.0 | 0.00 | 0.00 | 0.00 | 62 | 1027.1 |
| 20260903165532 | 75 | 336 | 2.0 | 4.0 | 0.00 | 0.00 | 0.00 | 61 | 1027.1 |
| 20260903164517 | 76 | 347 | 1.0 | 3.0 | 0.00 | 0.00 | 0.00 | 59 | 1026.9 |
| 20260903163533 | 76 | 334 | 3.0 | 4.0 | 0.00 | 0.00 | 0.00 | 58 | 1026.9 |
| 20260903162516 | 76 | 323 | 5.0 | 8.0 | 0.00 | 0.00 | 0.00 | 56 | 1026.8 |
| 20260903161532 | 77 | 329 | 5.0 | 8.0 | 0.00 | 0.00 | 0.00 | 55 | 1026.7 |
| 20260903160516 | 78 | 327 | 5.0 | 8.0 | 0.00 | 0.00 | 0.00 | 54 | 1026.7 |
| 20260903155532 | 78 | 321 | 6.0 | 11.0 | 0.00 | 0.00 | 0.00 | 53 | 1026.8 |
| 20260903154516 | 78 | 322 | 5.0 | 9.0 | 0.00 | 0.00 | 0.00 | 52 | 1027.0 |
| 20260903153532 | 78 | 314 | 6.0 | 9.0 | 0.00 | 0.00 | 0.00 | 52 | 1026.9 |
| 20260903152516 | 79 | 313 | 5.0 | 11.0 | 0.00 | 0.00 | 0.00 | 52 | 1026.9 |
| 20260903151517 | 79 | 330 | 9.0 | 14.0 | 0.00 | 0.00 | 0.00 | 52 | 1026.9 |
| 20260903150526 | 78 | 322 | 10.0 | 16.0 | 0.00 | 0.00 | 0.00 | 52 | 1026.9 |
| 20260903145521 | 79 | 327 | 11.0 | 17.0 | 0.00 | 0.00 | 0.00 | 52 | 1026.8 |
| 20260903144530 | 79 | 325 | 9.0 | 15.0 | 0.00 | 0.00 | 0.00 | 52 | 1026.9 |
| 20260903143532 | 78 | 321 | 9.0 | 14.0 | 0.00 | 0.00 | 0.00 | 52 | 1026.6 |
| 20260903142517 | 78 | 328 | 9.0 | 16.0 | 0.00 | 0.00 | 0.00 | 52 | 1026.6 |
| 20260903141517 | 79 | 318 | 9.0 | 14.0 | 0.00 | 0.00 | 0.00 | 52 | 1026.5 |
| 20260903140527 | 79 | 330 | 7.0 | 11.0 | 0.00 | 0.00 | 0.00 | 51 | 1026.5 |
| 20260903135517 | 79 | 333 | 6.0 | 11.0 | 0.00 | 0.00 | 0.00 | 50 | 1026.5 |
| 20260903134523 | 80 | 330 | 7.0 | 14.0 | 0.00 | 0.00 | 0.00 | 48 | 1026.3 |
| 20260903133529 | 80 | 326 | 6.0 | 10.0 | 0.00 | 0.00 | 0.00 | 47 | 1026.3 |
| 20260903132526 | 82 | 337 | 5.0 | 11.0 | 0.00 | 0.00 | 0.00 | 47 | 1026.7 |
| 20260903131521 | 81 | 331 | 6.0 | 10.0 | 0.00 | 0.00 | 0.00 | 46 | 1026.7 |
| 20260903130527 | 81 | 330 | 8.0 | 15.0 | 0.00 | 0.00 | 0.00 | 47 | 1026.8 |
| 20260903125517 | 82 | 338 | 4.0 | 9.0 | 0.00 | 0.00 | 0.00 | 47 | 1026.7 |
| 20260903124523 | 81 | 324 | 6.0 | 11.0 | 0.00 | 0.00 | 0.00 | 47 | 1026.8 |
| 20260903123533 | 81 | 332 | 7.0 | 11.0 | 0.00 | 0.00 | 0.00 | 45 | 1026.9 |
| 20260903122547 | 81 | 332 | 6.0 | 14.0 | 0.00 | 0.00 | 0.00 | 46 | 1026.9 |
| 20260903121520 | 80 | 326 | 6.0 | 15.0 | 0.00 | 0.00 | 0.00 | 47 | 1026.9 |
| 20260903120527 | 80 | 328 | 7.0 | 11.0 | 0.00 | 0.00 | 0.00 | 48 | 1027.1 |
| 20260903115537 | 80 | 327 | 4.0 | 10.0 | 0.00 | 0.00 | 0.00 | 49 | 1026.9 |
| 20260903114551 | 79 | 328 | 2.0 | 7.0 | 0.00 | 0.00 | 0.00 | 48 | 1027.1 |
| 20260903113553 | 79 | 326 | 4.0 | 7.0 | 0.00 | 0.00 | 0.00 | 49 | 1027.2 |
| 20260903112547 | 78 | 334 | 1.0 | 3.0 | 0.00 | 0.00 | 0.00 | 50 | 1027.3 |
| 20260903111521 | 78 | 336 | 2.0 | 7.0 | 0.00 | 0.00 | 0.00 | 52 | 1027.3 |
| 20260903110523 | 78 | 325 | 3.0 | 6.0 | 0.00 | 0.00 | 0.00 | 53 | 1027.6 |
| 20260903105517 | 76 | 316 | 2.0 | 4.0 | 0.00 | 0.00 | 0.00 | 53 | 1027.6 |
| 20260903104525 | 76 | 323 | 4.0 | 7.0 | 0.00 | 0.00 | 0.00 | 53 | 1027.8 |
| 20260903103517 | 76 | 331 | 2.0 | 7.0 | 0.00 | 0.00 | 0.00 | 52 | 1027.9 |
| 20260903102527 | 74 | 330 | 3.0 | 6.0 | 0.00 | 0.00 | 0.00 | 58 | 1028.1 |
| 20260903101537 | 74 | 329 | 3.0 | 8.0 | 0.00 | 0.00 | 0.00 | 57 | 1028.4 |
| 20260903100523 | 74 | 330 | 2.0 | 6.0 | 0.00 | 0.00 | 0.00 | 57 | 1028.6 |
| 20260903095517 | 73 | 354 | 4.0 | 10.0 | 0.00 | 0.00 | 0.00 | 60 | 1028.7 |
| 20260903094526 | 72 | 9 | 2.0 | 4.0 | 0.00 | 0.00 | 0.00 | 60 | 1028.7 |
| 20260903093516 | 72 | 352 | 3.0 | 7.0 | 0.00 | 0.00 | 0.00 | 59 | 1028.6 |
| 20260903092519 | 71 | 345 | 3.0 | 6.0 | 0.00 | 0.00 | 0.00 | 60 | 1028.8 |
| 20260903091517 | 70 | 342 | 2.0 | 4.0 | 0.00 | 0.00 | 0.00 | 63 | 1029.0 |
| 20260903090523 | 71 | 327 | 2.0 | 6.0 | 0.00 | 0.00 | 0.00 | 63 | 1029.1 |
| 20260903085517 | 69 | 13 | 1.0 | 3.0 | 0.00 | 0.00 | 0.00 | 65 | 1029.3 |
| 20260903084523 | 69 | 8 | 1.0 | 4.0 | 0.00 | 0.00 | 0.00 | 66 | 1029.4 |
| 20260903083516 | 69 | 104 | 1.0 | 2.0 | 0.00 | 0.00 | 0.00 | 67 | 1029.4 |
| 20260903082520 | 68 | 65 | 1.0 | 2.0 | 0.00 | 0.00 | 0.00 | 70 | 1029.6 |
| 20260903081532 | 65 | 31 | 1.0 | 2.0 | 0.00 | 0.00 | 0.00 | 76 | 1029.8 |
| 20260903080517 | 64 | 28 | 1.0 | 3.0 | 0.00 | 0.00 | 0.00 | 78 | 1030.0 |
| 20260903075533 | 63 | 27 | 1.0 | 3.0 | 0.00 | 0.00 | 0.00 | 80 | 1030.0 |
| 20260903074525 | 64 | 32 | 2.0 | 3.0 | 0.00 | 0.00 | 0.00 | 81 | 1029.8 |
| 20260903073517 | 66 | 76 | 1.0 | 3.0 | 0.00 | 0.00 | 0.00 | 75 | 1030.0 |
| 20260903072527 | 64 | 90 | 1.0 | 2.0 | 0.00 | 0.00 | 0.00 | 79 | 1029.9 |
| 20260903071517 | 65 | 48 | 0.0 | 1.0 | 0.00 | 0.00 | 0.00 | 77 | 1030.1 |
| 20260903070527 | 63 | 64 | 0.0 | 1.0 | 0.00 | 0.00 | 0.00 | 81 | 1030.1 |
| 20260903065517 | 61 | 194 | 0.0 | 1.0 | 0.00 | 0.00 | 0.00 | 86 | 1030.1 |
| 20260903064543 | 60 | 196 | 0.0 | 1.0 | 0.00 | 0.00 | 0.00 | 87 | 1030.2 |
| 20260903063517 | 59 | 167 | 1.0 | 3.0 | 0.00 | 0.00 | 0.00 | 89 | 1030.2 |
| 20260903062522 | 57 | 148 | 1.0 | 2.0 | 0.00 | 0.00 | 0.00 | 91 | 1030.1 |
| 20260903061558 | 57 | 297 | 0.0 | 1.0 | 0.00 | 0.00 | 0.00 | 92 | 1030.0 |
| 20260903060527 | 57 | 207 | 1.0 | 2.0 | 0.00 | 0.00 | 0.00 | 92 | 1030.0 |
| 20260903055517 | 56 | 27 | 1.0 | 1.0 | 0.00 | 0.00 | 0.00 | 92 | 1029.9 |
| 20260903054527 | 56 | 358 | 0.0 | 1.0 | 0.00 | 0.00 | 0.00 | 93 | 1030.1 |
| 20260903053518 | 55 | 296 | 1.0 | 2.0 | 0.00 | 0.00 | 0.00 | 93 | 1030.1 |
| 20260903052539 | 55 | 0.0 | 0.0 | 0.00 | 0.00 | 0.00 | 94 | 1029.9 | |
| 20260903051518 | 55 | 360 | 0.0 | 1.0 | 0.00 | 0.00 | 0.00 | 94 | 1029.8 |
| 20260903050527 | 56 | 23 | 0.0 | 2.0 | 0.00 | 0.00 | 0.00 | 92 | 1029.6 |
| 20260903045517 | 56 | 331 | 0.0 | 1.0 | 0.00 | 0.00 | 0.00 | 92 | 1029.6 |
| 20260903044527 | 56 | 336 | 0.0 | 2.0 | 0.00 | 0.00 | 0.00 | 94 | 1029.5 |
| 20260903043518 | 56 | 338 | 0.0 | 1.0 | 0.00 | 0.00 | 0.00 | 94 | 1029.5 |
| 20260903042527 | 56 | 54 | 1.0 | 2.0 | 0.00 | 0.00 | 0.00 | 94 | 1029.3 |
| 20260903041532 | 56 | 118 | 1.0 | 2.0 | 0.00 | 0.00 | 0.00 | 92 | 1029.4 |
| 20260903040527 | 56 | 329 | 0.0 | 1.0 | 0.00 | 0.00 | 0.00 | 91 | 1029.3 |
| 20260903035516 | 56 | 328 | 1.0 | 1.0 | 0.00 | 0.00 | 0.00 | 92 | 1029.3 |
| 20260903034600 | 56 | 339 | 1.0 | 2.0 | 0.00 | 0.00 | 0.00 | 91 | 1029.3 |
| 20260903033517 | 57 | 0.0 | 0.0 | 0.00 | 0.00 | 0.00 | 92 | 1029.2 | |
| 20260903032559 | 57 | 191 | 0.0 | 1.0 | 0.00 | 0.00 | 0.00 | 92 | 1029.2 |
| 20260903031523 | 57 | 0.0 | 0.0 | 0.00 | 0.00 | 0.00 | 92 | 1029.2 | |
| 20260903030517 | 57 | 190 | 0.0 | 1.0 | 0.00 | 0.00 | 0.00 | 92 | 1029.2 |
| 20260903025533 | 57 | 61 | 1.0 | 2.0 | 0.00 | 0.00 | 0.00 | 93 | 1029.2 |
| 20260903024517 | 58 | 0.0 | 0.0 | 0.00 | 0.00 | 0.00 | 90 | 1029.2 | |
| 20260903023533 | 58 | 9 | 0.0 | 1.0 | 0.00 | 0.00 | 0.00 | 91 | 1029.4 |
| 20260903022517 | 58 | 10 | 0.0 | 1.0 | 0.00 | 0.00 | 0.00 | 91 | 1029.3 |
| 20260903021533 | 58 | 8 | 1.0 | 2.0 | 0.00 | 0.00 | 0.00 | 90 | 1029.1 |
| 20260903020548 | 58 | 337 | 1.0 | 2.0 | 0.00 | 0.00 | 0.00 | 90 | 1029.0 |
| 20260903015518 | 58 | 3 | 0.0 | 1.0 | 0.00 | 0.00 | 0.00 | 90 | 1028.9 |
| 20260903014527 | 59 | 0.0 | 0.0 | 0.00 | 0.00 | 0.00 | 90 | 1028.8 | |
| 20260903013517 | 58 | 325 | 0.0 | 1.0 | 0.00 | 0.00 | 0.00 | 91 | 1028.9 |
| 20260903012547 | 59 | 323 | 0.0 | 1.0 | 0.00 | 0.00 | 0.00 | 89 | 1028.9 |
| 20260903011537 | 58 | 109 | 1.0 | 2.0 | 0.00 | 0.00 | 0.00 | 90 | 1028.9 |
| 20260903010523 | 59 | 77 | 1.0 | 2.0 | 0.00 | 0.00 | 0.00 | 89 | 1028.9 |
| 20260903005613 | 59 | 314 | 0.0 | 2.0 | 0.00 | 0.00 | 0.00 | 88 | 1028.7 |
| 20260903004518 | 59 | 337 | 2.0 | 3.0 | 0.00 | 0.00 | 0.00 | 89 | 1028.8 |
| 20260903003531 | 60 | 286 | 1.0 | 2.0 | 0.00 | 0.00 | 0.00 | 85 | 1028.7 |
| 20260903002517 | 60 | 329 | 0.0 | 2.0 | 0.00 | 0.00 | 0.00 | 87 | 1028.8 |
| 20260903001515 | 60 | 329 | 1.0 | 2.0 | 0.00 | 0.00 | 0.00 | 86 | 1028.7 |
| 20260903000537 | 60 | 325 | 2.0 | 3.0 | 0.00 | 0.00 | 0.00 | 85 | 1028.7 |
| 20260902235533 | 60 | 323 | 1.0 | 2.0 | 0.00 | 0.00 | 0.00 | 87 | 1028.7 |
| 20260902234537 | 61 | 304 | 0.0 | 2.0 | 0.00 | 0.00 | 0.00 | 86 | 1028.7 |
| 20260902233613 | 61 | 333 | 0.0 | 1.0 | 0.00 | 0.00 | 0.00 | 84 | 1028.7 |
| 20260902232517 | 61 | 0.0 | 0.0 | 0.00 | 0.00 | 0.00 | 84 | 1028.8 | |
| 20260902231536 | 61 | 336 | 1.0 | 1.0 | 0.00 | 0.00 | 0.00 | 84 | 1028.8 |
| 20260902230517 | 62 | 333 | 0.0 | 2.0 | 0.00 | 0.00 | 0.00 | 83 | 1028.6 |
| 20260902225533 | 63 | 292 | 0.0 | 1.0 | 0.00 | 0.00 | 0.00 | 83 | 1028.6 |
| 20260902224517 | 63 | 292 | 0.0 | 1.0 | 0.00 | 0.00 | 0.00 | 80 | 1028.6 |
| 20260902223517 | 63 | 313 | 0.0 | 1.0 | 0.00 | 0.00 | 0.00 | 83 | 1028.7 |
| 20260902222528 | 63 | 314 | 0.0 | 1.0 | 0.00 | 0.00 | 0.00 | 80 | 1028.5 |
| 20260902221517 | 64 | 314 | 0.0 | 1.0 | 0.00 | 0.00 | 0.00 | 80 | 1028.5 |
| 20260902220519 | 63 | 322 | 1.0 | 2.0 | 0.00 | 0.00 | 0.00 | 81 | 1028.4 |
| 20260902215523 | 64 | 328 | 1.0 | 1.0 | 0.00 | 0.00 | 0.00 | 79 | 1028.4 |
| 20260902214517 | 64 | 330 | 1.0 | 1.0 | 0.00 | 0.00 | 0.00 | 79 | 1028.3 |
| 20260902213533 | 65 | 328 | 0.0 | 1.0 | 0.00 | 0.00 | 0.00 | 77 | 1028.1 |
| 20260902212537 | 65 | 336 | 1.0 | 2.0 | 0.00 | 0.00 | 0.00 | 78 | 1028.1 |
| 20260902211533 | 66 | 175 | 0.0 | 1.0 | 0.00 | 0.00 | 0.00 | 77 | 1028.1 |
| 20260902210523 | 66 | 176 | 1.0 | 2.0 | 0.00 | 0.00 | 0.00 | 78 | 1028.0 |
| 20260902205517 | 67 | 174 | 1.0 | 1.0 | 0.00 | 0.00 | 0.00 | 77 | 1027.8 |
| 20260902204519 | 67 | 158 | 1.0 | 2.0 | 0.00 | 0.00 | 0.00 | 76 | 1027.9 |
| 20260902203543 | 67 | 207 | 0.0 | 2.0 | 0.00 | 0.00 | 0.00 | 75 | 1027.9 |
| 20260902202517 | 67 | 0.0 | 0.0 | 0.00 | 0.00 | 0.00 | 75 | 1027.8 | |
| 20260902201533 | 68 | 212 | 0.0 | 1.0 | 0.00 | 0.00 | 0.00 | 73 | 1027.9 |
| 20260902200517 | 68 | 187 | 1.0 | 2.0 | 0.00 | 0.00 | 0.00 | 74 | 1027.8 |
| 20260902195533 | 67 | 147 | 0.0 | 3.0 | 0.00 | 0.00 | 0.00 | 74 | 1027.8 |